Regional Weather Roundup
Issued by NWS

Home | Current Version | Previous Version | Text Only | Print | Product List | Glossary Off
Versions: 1 2 3 4 5 6 7 8 9 10 11 12 13 14 15 16 17 18 19 20 21 22 23 24 25 26 27 28 29 30 31 32 33 34 35 36 37 38 39 40 41 42 43 44 45 46 47 48 49 50

000
ASUS43 KLMK 280610
RWRKY
KENTUCKY REGIONAL WEATHER ROUNDUP
NATIONAL WEATHER SERVICE LOUISVILLE KY
200 AM EDT MON JUL 28 2014

NOTE "FAIR" INDICATES FEW OR NO CLOUDS BELOW 12,000 FEET
WITH NO SIGNIFICANT WEATHER AND/OR OBSTRUCTIONS TO VISIBILITY.

KYZ001>023-026-027-061>063-070>075-280700-
WESTERN AND SOUTH CENTRAL KENTUCKY

CITY           SKY/WX    TMP DP  RH WIND       PRES   REMARKS
PADUCAH        CLEAR     75  60  59 NW6       29.96R
HENDERSON      CLEAR     68  57  68 NW8       29.93S
OWENSBORO      CLEAR     72  58  61 NW8       29.93R
HOPKINSVILLE   CLEAR     75  60  60 NW6       29.94R
BOWLING GREEN  MOCLDY    77  59  53 NW8       29.92R
GLASGOW        MOCLDY    73  59  61 NW6       29.91S
$$

KYZ024-025-028>034-038-045-046-053-280700-
NORTH CENTRAL KENTUCKY

CITY           SKY/WX    TMP DP  RH WIND       PRES   REMARKS
LOUISVILLE/SDF CLEAR     72  59  63 W8        29.88R
LOUISVILLE/LOU CLEAR     72  58  61 NW8       29.88R
FORT KNOX      CLEAR     68  60  75 W6        29.90R
$$

KYZ035>037-039>044-047>052-055>060-089>105-280700-
NORTHEAST KENTUCKY

CITY           SKY/WX    TMP DP  RH WIND       PRES   REMARKS
LEXINGTON      CLEAR     70  63  78 NW6       29.87S
COVINGTON      PTCLDY    66  59  78 W9        29.83R
FRANKFORT      CLEAR     69  60  73 W5        29.86R
$$

KYZ054-064>069-076>088-106>120-280700-
SOUTHEAST KENTUCKY

CITY           SKY/WX    TMP DP  RH WIND       PRES   REMARKS
JACKSON        FOG       67  65  93 CALM      29.88S VSB 1/2
LONDON         PTCLDY    72  67  84 CALM      29.91R
SOMERSET       PTCLDY    72  63  73 N8        29.90S
MIDDLESBORO    CLOUDY    68  68 100 CALM      29.92R
MONTICELLO     CLEAR     70  67  90 CALM      29.92R
$$



USA.gov is the U.S. government's official web portal to all federal, state and local government web resources and services.